| time (UTC) | temp C | wind direction | speed KPH | gust KPH | rain 1hr cm | rain 24hr cm | rain mn cm | humidity % | barometer mb |
| 20260504194528 | 18 | 136 | 0.0 | 0.0 | 0.03 | 0.28 | 0.28 | 87 | 1003.5 |
| 20260504193027 | 17 | 149 | 0.0 | 0.0 | 0.05 | 0.28 | 0.28 | 90 | 1003.8 |
| 20260504191527 | 16 | 142 | 4.8 | 17.7 | 0.20 | 0.28 | 0.28 | 89 | 1003.4 |
| 20260504190023 | 16 | 149 | 0.0 | 0.0 | 0.23 | 0.28 | 0.28 | 88 | 1004.7 |
| 20260504184535 | 16 | 192 | 0.0 | 0.0 | 0.18 | 0.23 | 0.23 | 86 | 1005.3 |
| 20260504183021 | 16 | 145 | 6.4 | 12.9 | 0.18 | 0.23 | 0.23 | 83 | 1004.2 |
| 20260504181517 | 17 | 124 | 0.0 | 0.0 | 0.03 | 0.08 | 0.08 | 80 | 1005.4 |
| 20260504180016 | 17 | 50 | 0.0 | 4.8 | 0.03 | 0.05 | 0.05 | 79 | 1005.6 |
| 20260504174516 | 16 | 221 | 0.0 | 0.0 | 0.05 | 0.05 | 0.05 | 81 | 1005.2 |
| 20260504173015 | 16 | 221 | 0.0 | 0.0 | 0.05 | 0.05 | 0.05 | 81 | 1005.2 |
| 20260504171514 | 17 | 199 | 0.0 | 1.6 | 0.05 | 0.05 | 0.05 | 78 | 1005.4 |
| 20260504081523 | 16 | 132 | 1.6 | 4.8 | 0.00 | 0.00 | 0.00 | 69 | 1008.1 |
| 20260504044546 | 19 | 208 | 0.0 | 11.3 | 0.00 | 0.00 | 0.00 | 55 | 1008.0 |
| 20260504043047 | 19 | 186 | 0.0 | 4.8 | 0.00 | 0.00 | 0.00 | 54 | 1008.5 |
| 20260504041542 | 20 | 184 | 0.0 | 11.3 | 0.00 | 0.00 | 0.00 | 53 | 1008.8 |
| 20260504040041 | 20 | 242 | 0.0 | 4.8 | 0.00 | 0.00 | 0.00 | 52 | 1008.7 |
| 20260504034540 | 20 | 168 | 0.0 | 3.2 | 0.00 | 0.00 | 0.00 | 52 | 1009.5 |
| 20260504033140 | 20 | 231 | 0.0 | 4.8 | 0.00 | 0.00 | 0.00 | 52 | 1009.5 |
| 20260504031552 | 20 | 261 | 0.0 | 4.8 | 0.00 | 0.00 | 0.00 | 51 | 1009.6 |
| 20260504030042 | 20 | 207 | 0.0 | 3.2 | 0.00 | 0.00 | 0.00 | 51 | 1009.4 |
| 20260504024539 | 20 | 212 | 0.0 | 0.0 | 0.00 | 0.00 | 0.00 | 50 | 1009.2 |
| 20260504023039 | 20 | 207 | 0.0 | 3.2 | 0.00 | 0.00 | 0.00 | 50 | 1009.2 |
| 20260504021538 | 20 | 207 | 0.0 | 0.0 | 0.00 | 0.00 | 0.00 | 50 | 1009.2 |
| 20260504020038 | 21 | 207 | 0.0 | 0.0 | 0.00 | 0.00 | 0.00 | 49 | 1009.0 |
| 20260504014541 | 21 | 207 | 0.0 | 0.0 | 0.00 | 0.00 | 0.00 | 47 | 1008.9 |
| 20260504013041 | 21 | 213 | 0.0 | 0.0 | 0.00 | 0.00 | 0.00 | 46 | 1008.8 |
| 20260504011540 | 22 | 216 | 0.0 | 0.0 | 0.00 | 0.00 | 0.00 | 45 | 1008.7 |
| 20260504010036 | 22 | 220 | 0.0 | 0.0 | 0.00 | 0.00 | 0.00 | 44 | 1008.8 |
| 20260504004536 | 22 | 220 | 0.0 | 4.8 | 0.00 | 0.00 | 0.00 | 43 | 1008.7 |
| 20260504003033 | 23 | 190 | 0.0 | 0.0 | 0.00 | 0.00 | 0.00 | 41 | 1008.8 |
| 20260504001537 | 23 | 205 | 0.0 | 1.6 | 0.00 | 0.00 | 0.00 | 40 | 1008.7 |
| 20260504000032 | 24 | 200 | 0.0 | 8.0 | 0.00 | 0.00 | 0.00 | 38 | 1008.8 |
| 20260503234546 | 24 | 237 | 0.0 | 11.3 | 0.00 | 0.00 | 0.00 | 37 | 1008.9 |
| 20260503233037 | 25 | 218 | 0.0 | 20.9 | 0.00 | 0.00 | 0.00 | 36 | 1009.0 |
| 20260503231533 | 25 | 159 | 0.0 | 1.6 | 0.00 | 0.00 | 0.00 | 35 | 1009.1 |
| 20260503230031 | 25 | 225 | 0.0 | 22.5 | 0.00 | 0.00 | 0.00 | 34 | 1009.2 |
| 20260503224524 | 25 | 286 | 0.0 | 9.7 | 0.00 | 0.00 | 0.00 | 34 | 1009.4 |
| 20260503223022 | 25 | 220 | 0.0 | 6.4 | 0.00 | 0.00 | 0.00 | 32 | 1009.4 |
| 20260503221527 | 25 | 196 | 0.0 | 14.5 | 0.00 | 0.00 | 0.00 | 32 | 1009.7 |
| 20260503220018 | 25 | 208 | 0.0 | 14.5 | 0.00 | 0.00 | 0.00 | 32 | 1009.7 |
| 20260503214515 | 25 | 186 | 0.0 | 27.4 | 0.00 | 0.00 | 0.00 | 32 | 1009.8 |
| 20260503213013 | 25 | 154 | 0.0 | 19.3 | 0.00 | 0.00 | 0.00 | 32 | 1009.8 |
| 20260503211510 | 25 | 173 | 1.6 | 11.3 | 0.00 | 0.00 | 0.00 | 33 | 1009.9 |
| 20260503210008 | 24 | 208 | 0.0 | 16.1 | 0.00 | 0.00 | 0.00 | 33 | 1010.1 |
| 20260503204505 | 23 | 149 | 0.0 | 11.3 | 0.00 | 0.00 | 0.00 | 34 | 1010.5 |
| 20260503203003 | 23 | 203 | 0.0 | 14.5 | 0.00 | 0.00 | 0.00 | 35 | 1010.7 |
| 20260503201559 | 23 | 213 | 0.0 | 12.9 | 0.00 | 0.00 | 0.00 | 36 | 1011.1 |
| 20260503200057 | 23 | 196 | 1.6 | 16.1 | 0.00 | 0.00 | 0.00 | 35 | 1011.7 |